H-2A DEB

Satellite information

Favourite Embed

Satellite Type and Status

DEBRISIN ORBIT

Key statistics

Satellite H-2A DEB at a glance.

Uptime

4911

Days in orbit

Revolutions

≈ 14.9

Per day

Orbit

SSO

Sun Synchronous Orbit

Inclination

98.2

Latest

Satellite identification and parameters

Extended collection of information and parameters for H-2A DEB.

Object identification

Identified? True

Debris? True

Object name: H-2A DEB

International designator: 2012-025H

Object number (NORAD): 38347

Object ID (CCSDS): 38347

Country: JAPAN (JPN)

Current information (Y/N): Y

RCS size: LARGE

Orbital parameters

Period: 96.598 minutes

Inclination: 98.1847 deg

SMA: 6973.863 km

Apoapsis: 600.624 km

Periapsis: 590.831 km

RAAN: 57.2247 deg

Eccentricy: 0.00070211

Argument of periapsis: 157.373 deg

Mean anomaly: 202.7798 deg

Mean motion: 14.90708264 rev/day

Mean motion (dot): 0.00006582 rev/day2

B* drag term: 0.00067613886 1/REarth

Two-line elements (TLE)

Creation date: Oct. 26, 2025, 2:54 a.m.

Reference frame: TEME

Reference center: EARTH

Epoch: Oct. 25, 2025, 9:33 p.m. UTC

TLE line 0: 0 H-2A DEB

TLE line 1: 1 38347U 12025H 25298.89810460 .00006582 00000-0 67614-3 0 9995

TLE line 2: 2 38347 98.1847 57.2247 0007021 157.3730 202.7798 14.90708264723869

Live tracking on map

Real-time ground track for satellite H-2A DEB.

In-orbit conjunctions

A list of the most updated potential collisions computed for object H-2A DEB.

Target Orbit TCA Probability of collision Miss distance Type
DUMMY MASS 1 LEO 2024-12-12 00:52:06 0.0004545326 826.0 (m) PAYLOAD
FENGYUN 1C DEB SSO 2024-11-08 14:26:28 0.0002075098 234.0 (m) DEBRIS

Associated space launch

The GCOM-W (Global Change Observation Mission - Water) or Shizuku satellite aims to construct, use, and verify systems that enable continuous global-scale observations (for 10 to 15 years) of effective geophysical parameters for elucidating global climate change and water circulation mechanisms. Water circulation changes will be observed by a microwave radiometer onboard the GCOM-W (Water) satellite (scheduled to be launched in Japan Fiscal Year 2011). The GCOM-W will observe precipitation, vapor amounts, wind velocity above the ocean, sea water temperatures, water levels on land areas and snow depths. Climate change observation will be performed by a multi-wavelength optical radiometer onboard the GCOM-C (Climate) satellite (under consideration) on clouds, aerosol, seawater color (marine organisms), vegetation, snow and ice. These satellites will enable us to perform comprehensive observations of the surface layer of the Earth such as the atmosphere, including clouds, land, oceans and the cryosphere. The Advanced Microwave Scanning Radiometer 2 (AMSR2) is a sensor to observe radiometers, or microwaves emitted naturally from the ground, sea surface and atmosphere, using 6 different frequency bands ranging from 7 GHz to 89 GHz. The strength of a natural microwave is determined by its characteristics and moisture, including the surface condition and temperature of the material. Although it depends on the frequency, the microwave is very weak. AMSR2 will detect such weak microwaves at an altitude of 700 kilometers and measure the strength of them with a very high accuracy. For example, by measuring the strength of a microwave emitted from the sea surface with the AMSR2, one can understand the water temperature of the sea surface to an accuracy of 0.5 degrees Celsius.

H-2A DEB was lifted into orbit during the mission ‘H-IIA 202 | GCOM-W1’, on board a H-IIA space rocket.

The launch took place on May 17, 2012, 4:39 p.m. from Yoshinobu Launch Complex LP-1.

For more information about the launch, click the button.

Launch to space H-IIA 202 | GCOM-W1
H-IIA 202 | GCOM-W1

Agency: N/A

Status: Launch Successful

Launch date: May 17, 2012, 4:39 p.m. UTC

Rocket: H-IIA

Launch pad: Yoshinobu Launch Complex LP-1

Location: Tanegashima Space Center, Japan

...

Latest news about this satellite

There are no fresh news available about this satellite. Check back as we update our databases every day.


Newsletter sign-up

Weekly statistics, charts and insights to help you stay on top of the space industry.